PAB260 SBRF-GOBD

Flight info

Callsign PAB260
Flight time N/A
Altitude 21000
Route DOMDO UZ14 BUGAT UL206 KODOS/N0230F230 DCT 05N024W/N0235F250 08N022W DCT TURUP UA302 PIVSA PIVSA1D
Aircraft CONI/M-SDFY/C

Departure

Time 2026-05-01 14:02
Airport Recife/Guararapes - Gilberto Freyre International Airport (SBRF)

Arrival

Time N/A
Airport Blaise Diagne International Airport (GOBD)
Time Latitude Longitude Altitude Speed Heading
2026-05-01 14:02 -8.09472 -34.92079 885 ft 169 kts 59°
2026-05-01 14:02 -8.08975 -34.90924 1043 ft 187 kts 71°
2026-05-01 14:03 -8.08541 -34.89635 1181 ft 199 kts 70°
2026-05-01 14:03 -8.07996 -34.88334 1310 ft 204 kts 63°
2026-05-01 14:03 -8.07300 -34.87090 1438 ft 208 kts 57°
2026-05-01 14:03 -8.06471 -34.85878 1566 ft 212 kts 54°
2026-05-01 14:04 -8.05556 -34.84697 1694 ft 215 kts 52°
2026-05-01 14:04 -8.04574 -34.83520 1823 ft 218 kts 51°
2026-05-01 14:04 -8.03588 -34.82385 1949 ft 217 kts 51°
2026-05-01 14:04 -8.02950 -34.81666 2028 ft 215 kts 51°
2026-05-01 14:05 -8.01630 -34.80200 2191 ft 211 kts 50°
2026-05-01 14:05 -8.00647 -34.79118 2315 ft 208 kts 50°
2026-05-01 14:05 -7.99674 -34.78048 2439 ft 206 kts 51°
2026-05-01 14:05 -7.98713 -34.76992 2562 ft 203 kts 50°
2026-05-01 14:06 -7.97762 -34.75947 2686 ft 201 kts 51°
2026-05-01 14:06 -7.96913 -34.74849 2807 ft 196 kts 65°
2026-05-01 14:06 -7.96457 -34.73576 2935 ft 191 kts 79°
2026-05-01 14:06 -7.96197 -34.72269 3060 ft 189 kts 83°
2026-05-01 14:07 -7.96011 -34.70968 3184 ft 187 kts 85°
2026-05-01 14:07 -7.95857 -34.69674 3308 ft 185 kts 86°
2026-05-01 14:07 -7.95717 -34.68389 3432 ft 183 kts 86°
2026-05-01 14:08 -7.95457 -34.65839 3682 ft 184 kts 86°
2026-05-01 14:08 -7.95330 -34.64552 3808 ft 185 kts 86°
2026-05-01 14:08 -7.95203 -34.63258 3934 ft 186 kts 86°
2026-05-01 14:08 -7.95075 -34.61958 4059 ft 187 kts 86°
2026-05-01 14:09 -7.94947 -34.60648 4185 ft 188 kts 86°
2026-05-01 14:09 -7.94818 -34.59336 4311 ft 188 kts 86°
2026-05-01 14:09 -7.94690 -34.58020 4436 ft 189 kts 86°
2026-05-01 14:09 -7.94560 -34.56701 4563 ft 189 kts 86°
2026-05-01 14:10 -7.94430 -34.55381 4689 ft 189 kts 86°
2026-05-01 14:10 -7.94299 -34.54059 4811 ft 190 kts 86°
2026-05-01 14:10 -7.94173 -34.52753 4936 ft 189 kts 86°
2026-05-01 14:10 -7.94009 -34.51418 5060 ft 190 kts 78°
2026-05-01 14:11 -7.93418 -34.50224 5187 ft 193 kts 57°
2026-05-01 14:11 -7.91584 -34.48243 5440 ft 196 kts 47°
2026-05-01 14:11 -7.90582 -34.47285 5567 ft 196 kts 46°
2026-05-01 14:12 -7.89597 -34.46360 5691 ft 196 kts 46°
2026-05-01 14:12 -7.88595 -34.45424 5816 ft 197 kts 46°
2026-05-01 14:12 -7.87586 -34.44486 5943 ft 198 kts 46°
2026-05-01 14:12 -7.86574 -34.43544 6069 ft 198 kts 46°
2026-05-01 14:13 -7.85558 -34.42600 6194 ft 199 kts 46°
2026-05-01 14:13 -7.84869 -34.41961 6278 ft 199 kts 46°
2026-05-01 14:13 -7.83520 -34.40709 6444 ft 199 kts 46°
2026-05-01 14:13 -7.82503 -34.39765 6569 ft 199 kts 46°
2026-05-01 14:14 -7.81489 -34.38825 6691 ft 196 kts 45°
2026-05-01 14:14 -7.80813 -34.38199 6837 ft 205 kts 45°
2026-05-01 14:14 -7.79715 -34.37181 7054 ft 220 kts 45°
2026-05-01 14:14 -7.78567 -34.36113 7304 ft 226 kts 45°
2026-05-01 14:15 -7.77403 -34.35035 7708 ft 230 kts 45°
2026-05-01 14:15 -7.76251 -34.33967 8000 ft 222 kts 45°
2026-05-01 14:15 -7.75131 -34.32930 8316 ft 212 kts 45°
2026-05-01 14:15 -7.74084 -34.31961 8677 ft 197 kts 45°
2026-05-01 14:16 -7.73097 -34.31047 8923 ft 192 kts 45°
2026-05-01 14:16 -7.72113 -34.30132 9049 ft 193 kts 45°
2026-05-01 14:16 -7.71121 -34.29208 9176 ft 195 kts 45°
2026-05-01 14:16 -7.70121 -34.28280 9302 ft 196 kts 45°
2026-05-01 14:17 -7.69115 -34.27345 9428 ft 197 kts 45°
2026-05-01 14:17 -7.68105 -34.26408 9554 ft 198 kts 45°
2026-05-01 14:17 -7.67091 -34.25468 9680 ft 198 kts 45°
2026-05-01 14:17 -7.66075 -34.24527 9806 ft 198 kts 45°
2026-05-01 14:18 -7.65061 -34.23587 9931 ft 198 kts 45°
2026-05-01 14:18 -7.64044 -34.22644 10032 ft 198 kts 45°
2026-05-01 14:18 -7.63036 -34.21708 10144 ft 197 kts 45°
2026-05-01 14:18 -7.62031 -34.20777 10263 ft 197 kts 45°
2026-05-01 14:19 -7.61022 -34.19844 10399 ft 197 kts 45°
2026-05-01 14:19 -7.60024 -34.18918 10557 ft 194 kts 45°
2026-05-01 14:19 -7.59015 -34.17983 10812 ft 205 kts 45°
2026-05-01 14:19 -7.57957 -34.17002 10919 ft 204 kts 45°
2026-05-01 14:20 -7.56948 -34.16066 11169 ft 198 kts 45°
2026-05-01 14:20 -7.54982 -34.14249 11666 ft 191 kts 45°
2026-05-01 14:20 -7.54028 -34.13367 11902 ft 184 kts 44°
2026-05-01 14:21 -7.53103 -34.12511 12150 ft 177 kts 45°
2026-05-01 14:21 -7.52211 -34.11684 12391 ft 172 kts 45°
2026-05-01 14:21 -7.51344 -34.10879 12635 ft 167 kts 45°
2026-05-01 14:22 -7.49696 -34.09351 13073 ft 152 kts 45°
2026-05-01 14:22 -7.48924 -34.08634 13307 ft 155 kts 46°
2026-05-01 14:22 -7.48108 -34.07875 13371 ft 164 kts 45°
2026-05-01 14:22 -7.47250 -34.07079 13597 ft 175 kts 46°
2026-05-01 14:23 -7.46334 -34.06212 13650 ft 185 kts 48°
2026-05-01 14:23 -7.45455 -34.05243 13783 ft 189 kts 52°
2026-05-01 14:23 -7.44600 -34.04215 13912 ft 194 kts 53°
2026-05-01 14:23 -7.43742 -34.03150 14039 ft 197 kts 53°
2026-05-01 14:24 -7.42877 -34.02061 14166 ft 200 kts 54°
2026-05-01 14:24 -7.42007 -34.00957 14293 ft 202 kts 54°
2026-05-01 14:24 -7.41130 -33.99841 14420 ft 204 kts 54°
2026-05-01 14:24 -7.40247 -33.98714 14546 ft 206 kts 54°
2026-05-01 14:25 -7.39359 -33.97580 14672 ft 207 kts 54°
2026-05-01 14:25 -7.38466 -33.96439 14798 ft 208 kts 54°
2026-05-01 14:25 -7.37572 -33.95296 14923 ft 208 kts 54°
2026-05-01 14:25 -7.36675 -33.94148 15049 ft 209 kts 54°
2026-05-01 14:26 -7.35776 -33.92998 15174 ft 209 kts 54°
2026-05-01 14:26 -7.33979 -33.90698 15425 ft 209 kts 54°
2026-05-01 14:26 -7.33079 -33.89547 15549 ft 209 kts 54°
2026-05-01 14:27 -7.32180 -33.88396 15674 ft 209 kts 54°
2026-05-01 14:27 -7.31282 -33.87248 15799 ft 209 kts 54°
2026-05-01 14:27 -7.30384 -33.86100 15924 ft 208 kts 55°
2026-05-01 14:28 -7.28594 -33.83810 16174 ft 208 kts 55°
2026-05-01 14:28 -7.27702 -33.82668 16298 ft 207 kts 55°
2026-05-01 14:28 -7.26824 -33.81545 16421 ft 207 kts 55°
2026-05-01 14:28 -7.25924 -33.80394 16548 ft 206 kts 55°
2026-05-01 14:29 -7.25038 -33.79260 16673 ft 206 kts 55°
2026-05-01 14:29 -7.24168 -33.78147 16796 ft 205 kts 55°
2026-05-01 14:30 -7.21532 -33.74778 17170 ft 203 kts 55°
2026-05-01 14:30 -7.20660 -33.73662 17294 ft 202 kts 55°
2026-05-01 14:30 -7.19790 -33.72550 17419 ft 202 kts 56°
2026-05-01 14:31 -7.18059 -33.70338 17669 ft 200 kts 56°
2026-05-01 14:31 -7.17198 -33.69238 17795 ft 200 kts 56°
2026-05-01 14:31 -7.16340 -33.68141 17918 ft 199 kts 56°
2026-05-01 14:31 -7.15485 -33.67049 18045 ft 198 kts 56°
2026-05-01 14:32 -7.14634 -33.65961 18172 ft 197 kts 56°
2026-05-01 14:32 -7.13786 -33.64877 18297 ft 197 kts 56°
2026-05-01 14:32 -7.12941 -33.63796 18421 ft 196 kts 56°
2026-05-01 14:32 -7.12098 -33.62718 18546 ft 196 kts 56°
2026-05-01 14:33 -7.11258 -33.61645 18670 ft 195 kts 56°
2026-05-01 14:33 -7.10420 -33.60573 18794 ft 194 kts 56°
2026-05-01 14:33 -7.09585 -33.59505 18918 ft 194 kts 56°
2026-05-01 14:33 -7.08752 -33.58441 19042 ft 193 kts 56°
2026-05-01 14:34 -7.07921 -33.57379 19167 ft 193 kts 56°
2026-05-01 14:34 -7.07093 -33.56322 19294 ft 192 kts 56°
2026-05-01 14:34 -7.06270 -33.55270 19420 ft 191 kts 56°
2026-05-01 14:34 -7.05447 -33.54218 19544 ft 192 kts 56°
2026-05-01 14:35 -7.04614 -33.53152 19638 ft 195 kts 56°
2026-05-01 14:35 -7.03770 -33.52072 19718 ft 198 kts 56°
2026-05-01 14:35 -7.02911 -33.50974 19796 ft 200 kts 56°
2026-05-01 14:35 -7.02044 -33.49866 19873 ft 203 kts 55°
2026-05-01 14:36 -7.01159 -33.48735 19943 ft 208 kts 55°
2026-05-01 14:36 -7.00279 -33.47614 20081 ft 206 kts 55°
2026-05-01 14:36 -6.99405 -33.46502 20236 ft 200 kts 55°
2026-05-01 14:36 -6.98546 -33.45402 20419 ft 198 kts 56°
2026-05-01 14:37 -6.97706 -33.44330 20617 ft 193 kts 56°
2026-05-01 14:37 -6.96865 -33.43252 20851 ft 202 kts 56°
2026-05-01 14:37 -6.95987 -33.42123 20949 ft 209 kts 56°
2026-05-01 14:37 -6.95079 -33.40956 21098 ft 213 kts 55°
2026-05-01 14:38 -6.94142 -33.39768 21176 ft 225 kts 54°
2026-05-01 14:38 -6.93134 -33.38479 21041 ft 242 kts 55°
2026-05-01 14:38 -6.92075 -33.37128 21039 ft 253 kts 54°
2026-05-01 14:38 -6.90958 -33.35703 20960 ft 259 kts 54°
2026-05-01 14:39 -6.89851 -33.34293 21031 ft 256 kts 54°
2026-05-01 14:39 -6.88744 -33.32884 21038 ft 257 kts 54°
2026-05-01 14:39 -6.87634 -33.31470 21037 ft 257 kts 54°
2026-05-01 14:39 -6.86526 -33.30059 21036 ft 257 kts 54°
2026-05-01 14:40 -6.85418 -33.28647 21036 ft 257 kts 54°
2026-05-01 14:40 -6.84311 -33.27236 21035 ft 257 kts 54°
2026-05-01 14:40 -6.83206 -33.25827 21035 ft 257 kts 54°
2026-05-01 14:40 -6.82100 -33.24417 21034 ft 257 kts 54°
2026-05-01 14:41 -6.80994 -33.23007 21034 ft 256 kts 54°
2026-05-01 14:41 -6.79889 -33.21598 21034 ft 256 kts 54°
2026-05-01 14:41 -6.78786 -33.20191 21034 ft 256 kts 54°
2026-05-01 14:41 -6.77682 -33.18784 21033 ft 256 kts 54°
2026-05-01 14:42 -6.76577 -33.17376 21033 ft 256 kts 54°
2026-05-01 14:42 -6.75473 -33.15969 21032 ft 256 kts 54°
2026-05-01 14:42 -6.74371 -33.14564 21033 ft 256 kts 54°
2026-05-01 14:42 -6.73282 -33.13176 21028 ft 256 kts 54°
2026-05-01 14:43 -6.72177 -33.11768 21027 ft 256 kts 54°
2026-05-01 14:43 -6.71070 -33.10356 21031 ft 258 kts 54°
2026-05-01 14:43 -6.69954 -33.08934 21031 ft 260 kts 54°
2026-05-01 14:43 -6.68829 -33.07501 21036 ft 262 kts 54°
2026-05-01 14:44 -6.67695 -33.06055 21027 ft 264 kts 54°
2026-05-01 14:44 -6.65399 -33.03127 21028 ft 268 kts 54°
2026-05-01 14:44 -6.64245 -33.01651 21028 ft 269 kts 54°
2026-05-01 14:45 -6.63085 -33.00167 21029 ft 271 kts 54°
2026-05-01 14:45 -6.60738 -32.97178 21029 ft 274 kts 54°
2026-05-01 14:45 -6.59553 -32.95673 21029 ft 275 kts 54°
2026-05-01 14:46 -6.58362 -32.94159 21028 ft 277 kts 54°
2026-05-01 14:46 -6.55961 -32.91105 21024 ft 280 kts 54°
2026-05-01 14:46 -6.54750 -32.89563 21024 ft 281 kts 54°
2026-05-01 14:47 -6.53534 -32.88015 21026 ft 283 kts 54°
2026-05-01 14:47 -6.52313 -32.86463 21027 ft 284 kts 54°
2026-05-01 14:47 -6.51087 -32.84904 21027 ft 285 kts 54°
2026-05-01 14:48 -6.48624 -32.81772 21026 ft 286 kts 54°
2026-05-01 14:48 -6.47387 -32.80201 21019 ft 287 kts 54°
2026-05-01 14:48 -6.44908 -32.77050 21032 ft 287 kts 53°
2026-05-01 14:49 -6.42423 -32.73899 21008 ft 288 kts 54°
2026-05-01 14:49 -6.39932 -32.70738 21019 ft 288 kts 54°
2026-05-01 14:50 -6.38269 -32.68620 21023 ft 294 kts 54°
2026-05-01 14:50 -6.34854 -32.64279 21046 ft 293 kts 54°
2026-05-01 14:51 -6.33590 -32.62670 21029 ft 293 kts 54°
2026-05-01 14:51 -6.31062 -32.59455 21018 ft 293 kts 54°
2026-05-01 14:52 -6.28543 -32.56252 21018 ft 292 kts 54°
2026-05-01 14:52 -6.27284 -32.54652 21018 ft 291 kts 54°
2026-05-01 14:52 -6.24773 -32.51461 21016 ft 291 kts 54°
2026-05-01 14:53 -6.23519 -32.49867 21016 ft 291 kts 54°
2026-05-01 14:53 -6.22265 -32.48275 21016 ft 290 kts 54°
2026-05-01 14:53 -6.21012 -32.46683 21015 ft 290 kts 54°
2026-05-01 14:53 -6.19759 -32.45091 21015 ft 290 kts 54°
2026-05-01 14:54 -6.18523 -32.43522 21014 ft 290 kts 54°
2026-05-01 14:54 -6.17269 -32.41930 21012 ft 290 kts 54°
2026-05-01 14:54 -6.16017 -32.40341 21010 ft 290 kts 54°
2026-05-01 14:54 -6.14764 -32.38750 21008 ft 290 kts 54°
2026-05-01 14:55 -6.13513 -32.37161 21011 ft 290 kts 54°
2026-05-01 14:55 -6.12262 -32.35572 21007 ft 290 kts 54°
2026-05-01 14:55 -6.11010 -32.33986 21010 ft 290 kts 54°
2026-05-01 14:55 -6.09758 -32.32397 21005 ft 290 kts 54°
2026-05-01 14:56 -6.08507 -32.30809 21006 ft 290 kts 54°
2026-05-01 14:56 -6.07255 -32.29220 21004 ft 290 kts 54°
2026-05-01 14:56 -6.06003 -32.27633 21005 ft 290 kts 54°
2026-05-01 14:56 -6.04756 -32.26050 21038 ft 288 kts 54°
2026-05-01 14:57 -6.03512 -32.24474 21105 ft 286 kts 54°
2026-05-01 14:57 -6.01056 -32.21363 21251 ft 282 kts 54°
2026-05-01 14:57 -5.99839 -32.19820 21326 ft 281 kts 54°
2026-05-01 14:58 -5.98630 -32.18286 21404 ft 279 kts 54°
2026-05-01 14:58 -5.97429 -32.16763 21480 ft 277 kts 54°
2026-05-01 14:58 -5.96235 -32.15246 21542 ft 276 kts 54°
2026-05-01 14:58 -5.95051 -32.13747 21652 ft 273 kts 54°
2026-05-01 14:59 -5.93885 -32.12272 21707 ft 273 kts 53°
2026-05-01 14:59 -5.92716 -32.10794 21999 ft 266 kts 54°
2026-05-01 14:59 -5.91563 -32.09339 22323 ft 271 kts 53°
2026-05-01 14:59 -5.90361 -32.07817 22386 ft 286 kts 53°
2026-05-01 15:00 -5.87788 -32.04536 22245 ft 303 kts 53°
2026-05-01 15:00 -5.86506 -32.02912 22288 ft 298 kts 53°
2026-05-01 15:00 -5.85226 -32.01292 22358 ft 294 kts 53°
2026-05-01 15:01 -5.83968 -31.99700 22430 ft 289 kts 53°
2026-05-01 15:01 -5.82724 -31.98127 22498 ft 286 kts 53°
2026-05-01 15:01 -5.81493 -31.96569 22576 ft 283 kts 53°
2026-05-01 15:01 -5.80269 -31.95030 22652 ft 281 kts 53°
2026-05-01 15:02 -5.79053 -31.93506 22723 ft 279 kts 53°
2026-05-01 15:02 -5.78643 -31.92992 22748 ft 278 kts 53°
2026-05-01 15:02 -5.76644 -31.90491 22871 ft 275 kts 53°
2026-05-01 15:02 -5.75853 -31.89505 22919 ft 273 kts 53°
2026-05-01 15:03 -5.74667 -31.88026 22983 ft 271 kts 53°
2026-05-01 15:03 -5.73482 -31.86550 22987 ft 272 kts 53°
2026-05-01 15:03 -5.72291 -31.85069 22981 ft 273 kts 53°
2026-05-01 15:03 -5.71101 -31.83583 22985 ft 273 kts 53°
2026-05-01 15:04 -5.69907 -31.82097 22994 ft 273 kts 53°
2026-05-01 15:04 -5.68711 -31.80609 22994 ft 274 kts 53°
2026-05-01 15:04 -5.67515 -31.79118 22992 ft 274 kts 53°
2026-05-01 15:04 -5.66317 -31.77624 22979 ft 275 kts 53°
2026-05-01 15:05 -5.65117 -31.76126 22978 ft 275 kts 53°
2026-05-01 15:05 -5.63911 -31.74629 23006 ft 277 kts 53°
2026-05-01 15:05 -5.62698 -31.73121 23019 ft 276 kts 53°
2026-05-01 15:05 -5.61501 -31.71631 23080 ft 273 kts 53°
2026-05-01 15:06 -5.60303 -31.70140 23028 ft 275 kts 53°
2026-05-01 15:06 -5.59102 -31.68644 23010 ft 276 kts 53°
2026-05-01 15:06 -5.57893 -31.67136 22995 ft 278 kts 53°
2026-05-01 15:06 -5.56698 -31.65644 22990 ft 278 kts 53°
2026-05-01 15:07 -5.55467 -31.64108 22989 ft 279 kts 53°
2026-05-01 15:07 -5.54265 -31.62608 22989 ft 280 kts 53°
2026-05-01 15:07 -5.53045 -31.61088 22989 ft 280 kts 53°
2026-05-01 15:07 -5.51820 -31.59562 22988 ft 281 kts 53°
2026-05-01 15:08 -5.50594 -31.58034 22987 ft 281 kts 53°
2026-05-01 15:08 -5.49364 -31.56503 22986 ft 282 kts 53°
2026-05-01 15:08 -5.48134 -31.54971 22986 ft 282 kts 53°
2026-05-01 15:08 -5.46903 -31.53439 22986 ft 282 kts 53°
2026-05-01 15:09 -5.45667 -31.51901 22987 ft 283 kts 53°
2026-05-01 15:09 -5.44434 -31.50366 22986 ft 283 kts 53°
2026-05-01 15:09 -5.43197 -31.48827 22986 ft 283 kts 52°
2026-05-01 15:09 -5.41959 -31.47287 22975 ft 284 kts 53°
2026-05-01 15:10 -5.40717 -31.45742 22966 ft 284 kts 53°
2026-05-01 15:10 -5.38230 -31.42650 22966 ft 285 kts 52°
2026-05-01 15:10 -5.36986 -31.41105 22964 ft 285 kts 53°
2026-05-01 15:11 -5.35742 -31.39556 22953 ft 285 kts 52°
2026-05-01 15:11 -5.33249 -31.36466 22968 ft 284 kts 52°
2026-05-01 15:11 -5.32008 -31.34925 22958 ft 284 kts 52°
2026-05-01 15:12 -5.30764 -31.33379 22953 ft 284 kts 52°
2026-05-01 15:12 -5.28283 -31.30292 22958 ft 284 kts 53°
2026-05-01 15:12 -5.27043 -31.28752 22967 ft 284 kts 52°
2026-05-01 15:13 -5.23321 -31.24119 22952 ft 285 kts 52°
2026-05-01 15:14 -5.20835 -31.21025 22950 ft 285 kts 52°
2026-05-01 15:14 -5.19592 -31.19479 22949 ft 285 kts 52°
2026-05-01 15:14 -5.17102 -31.16384 22949 ft 285 kts 52°
2026-05-01 15:15 -5.14608 -31.13285 22949 ft 285 kts 52°
2026-05-01 15:15 -5.12133 -31.10210 22949 ft 285 kts 52°
2026-05-01 15:16 -5.09639 -31.07112 22948 ft 285 kts 52°
2026-05-01 15:16 -5.07145 -31.04014 22950 ft 285 kts 52°
2026-05-01 15:17 -5.04650 -31.00917 22950 ft 285 kts 52°
2026-05-01 15:18 -5.00907 -30.96268 22948 ft 286 kts 52°
2026-05-01 15:18 -4.99653 -30.94713 22942 ft 288 kts 52°
2026-05-01 15:19 -4.95762 -30.89912 22876 ft 317 kts 52°
2026-05-01 15:19 -4.92959 -30.86392 22797 ft 324 kts 52°
2026-05-01 15:19 -4.91538 -30.84621 22822 ft 328 kts 52°
2026-05-01 15:20 -4.88674 -30.81073 22960 ft 329 kts 52°
2026-05-01 15:20 -4.87219 -30.79271 22815 ft 334 kts 52°
2026-05-01 15:20 -4.85782 -30.77497 22895 ft 322 kts 52°
2026-05-01 15:21 -4.84387 -30.75772 22941 ft 315 kts 52°
2026-05-01 15:21 -4.83021 -30.74081 22947 ft 310 kts 52°
2026-05-01 15:21 -4.81672 -30.72409 22951 ft 307 kts 52°
2026-05-01 15:21 -4.80354 -30.70776 22951 ft 304 kts 52°
2026-05-01 15:22 -4.77702 -30.67490 22961 ft 298 kts 52°
2026-05-01 15:22 -4.76400 -30.65878 22965 ft 297 kts 52°
2026-05-01 15:22 -4.75104 -30.64275 22965 ft 295 kts 52°
2026-05-01 15:23 -4.73833 -30.62696 22967 ft 294 kts 52°
2026-05-01 15:23 -4.72551 -30.61105 22950 ft 293 kts 52°
2026-05-01 15:23 -4.71270 -30.59515 22940 ft 292 kts 51°
2026-05-01 15:23 -4.69985 -30.57932 22989 ft 295 kts 52°
2026-05-01 15:24 -4.68672 -30.56305 22987 ft 308 kts 52°
2026-05-01 15:24 -4.67285 -30.54592 22821 ft 324 kts 51°
2026-05-01 15:24 -4.65851 -30.52820 22613 ft 328 kts 51°
2026-05-01 15:24 -4.64430 -30.51065 22736 ft 317 kts 52°
2026-05-01 15:25 -4.63077 -30.49390 22976 ft 304 kts 51°
2026-05-01 15:25 -4.61760 -30.47758 23024 ft 299 kts 51°
2026-05-01 15:25 -4.60436 -30.46121 23048 ft 309 kts 51°
2026-05-01 15:25 -4.59050 -30.44395 22769 ft 324 kts 51°
2026-05-01 15:26 -4.57642 -30.42645 22766 ft 318 kts 51°
2026-05-01 15:26 -4.56267 -30.40940 22874 ft 310 kts 51°
2026-05-01 15:26 -4.54926 -30.39283 23005 ft 302 kts 51°
2026-05-01 15:26 -4.53614 -30.37657 23027 ft 299 kts 51°
2026-05-01 15:27 -4.52303 -30.36022 23123 ft 304 kts 51°
2026-05-01 15:27 -4.50960 -30.34355 23039 ft 314 kts 51°
2026-05-01 15:27 -4.49564 -30.32623 22918 ft 325 kts 51°
2026-05-01 15:28 -4.46676 -30.29044 22794 ft 325 kts 51°
2026-05-01 15:28 -4.45277 -30.27306 22885 ft 316 kts 51°
2026-05-01 15:28 -4.43908 -30.25610 22934 ft 310 kts 51°
2026-05-01 15:29 -4.41216 -30.22292 22943 ft 304 kts 51°
2026-05-01 15:29 -4.39891 -30.20654 22947 ft 301 kts 51°
2026-05-01 15:29 -4.37268 -30.17406 22936 ft 298 kts 51°
2026-05-01 15:30 -4.34690 -30.14219 22946 ft 295 kts 51°
2026-05-01 15:31 -4.29559 -30.07870 22938 ft 291 kts 51°
2026-05-01 15:31 -4.27020 -30.04722 22945 ft 290 kts 51°
2026-05-01 15:32 -4.24483 -30.01583 22949 ft 289 kts 51°
2026-05-01 15:32 -4.21956 -29.98460 22942 ft 289 kts 51°
2026-05-01 15:33 -4.18164 -29.93776 22936 ft 289 kts 51°
2026-05-01 15:34 -4.14376 -29.89093 22949 ft 288 kts 51°